Lexington Weather

Lexington, Massachusetts, USA

47°F
10/22/2019 3:03am 
  • Lexington Conditions: Haze, Overcast
  • Temperature: 47.3°F / 8.5°CWarmer 1.1°F than last hour.
  • Dew Point: 45.9°FIncreased 1.3°Fsince last hour.
  • Relative Humidity: 95%Increased 1.0% since last hour.
  • Wind: Calm, 10-min avg: Calm, gust: None
  • Barometer: 30.12 in Steady
  • Visibility: 1½ miles
  • Rain Today: 0.00 in
  •   

Regional Weather Roundup
for Boston, MA

        
000
ASUS41 KBOX 210300
RWRBOX

REGIONAL WEATHER ROUNDUP
NATIONAL WEATHER SERVICE BOSTON/NORTON MA
1100 PM EDT SUN OCT 20 2019

NOTE:  "FAIR" INDICATES FEW OR NO CLOUDS BELOW 12,000 FEET WITH NO 
SIGNIFICANT WEATHER AND/OR OBSTRUCTIONS TO VISIBILITY.

MAZALL-210400-
EASTERN MASSACHUSETTS
  
CITY           SKY/WX    TMP DP  RH WIND       PRES   REMARKS
BOSTON         CLOUDY    57  47  69 CALM      30.05S                  
BEVERLY        CLOUDY    51  48  89 N7        30.05S                  
LAWRENCE       CLOUDY    51  47  86 N7        30.08F                  
BEDFORD        CLOUDY    54  47  77 N6        30.05S                  
BLUE HILL      NOT AVBL                                               
NORWOOD        CLOUDY    54  49  83 NW5       30.05R                  
MARSHFIELD     NOT AVBL                                               
PLYMOUTH       CLOUDY    52  47  83 CALM      30.04F                  
TAUNTON        CLOUDY    54  47  77 CALM      30.04R                  
NEW BEDFORD    LGT RAIN  53  49  86 CALM      30.03S                  
$$

MAZALL-210400-
CAPE COD AND THE ISLANDS
  
CITY           SKY/WX    TMP DP  RH WIND       PRES   REMARKS
FALMOUTH       MOCLDY    52  48  87 NE5       30.03S                  
HYANNIS        NOT AVBL                                               
CHATHAM        NOT AVBL                                               
PROVINCETOWN   CLOUDY    53  47  79 E6          N/A                   
NANTUCKET      LGT RAIN  55  53  93 E8        30.02S                  
MARTHAS VNYRD  FAIR      54  51  90 NE6       30.02F                  
$$
 
MAZALL-210400-
CENTRAL AND WESTERN MASSACHUSETTS
  
CITY           SKY/WX    TMP DP  RH WIND       PRES   REMARKS
WORCESTER      CLOUDY    49  44  83 N7        30.04F                  
FITCHBURG      CLOUDY    50  47  89 CALM      30.07S                  
ORANGE         CLOUDY    51  48  89 NW5       30.06F                  
SPRINGFIELD    CLOUDY    51  50  97 CALM      30.04S                  
WESTFIELD      CLOUDY    50  48  93 N5        30.05S                  
NORTH ADAMS    FAIR      46  44  93 CALM      30.04S                  
PITTSFIELD     FAIR      47  45  93 CALM      30.02F FOG              
$$
 
RIZALL-210400-
RHODE ISLAND
  
CITY           SKY/WX    TMP DP  RH WIND       PRES   REMARKS
PROVIDENCE     LGT RAIN  54  50  86 N5        30.04S                  
NEWPORT        LGT RAIN  54  50  86 NE5       30.02S                  
BLOCK ISLAND   CLOUDY    56  52  86 E8G17     30.01F                  
SMITHFIELD     LGT RAIN N/A N/A N/A N5        30.05R                  
WESTERLY       LGT RAIN  54  51  90 CALM      30.03S                  
$$
 
CTZALL-210400-
CONNECTICUT
  
CITY           SKY/WX    TMP DP  RH WIND       PRES   REMARKS
BRADLEY INTL   LGT RAIN  52  49  89 CALM      30.04S                  
HARTFORD       LGT RAIN  51  49  92 NE3       30.04S                  
BRIDGEPORT     LGT RAIN  53  50  89 NE13      30.01F                  
DANBURY        LGT RAIN  51  49  92 NE6       30.03S                  
GROTON         NOT AVBL                                               
NEW HAVEN      LGT RAIN  54  50  86 N10       30.02S                  
CHESTER        LGT RAIN  50  50 100 N6        30.03S                  
MERIDEN        CLOUDY    51  48  89 N6        30.03S                  
WILLIMANTIC    CLOUDY    50  49  96 N3        30.05S                  
OXFORD         LGT RAIN  49  48  97 NE10      30.02F                  
$$

MEZ002-015-021-024-NHZ003-005-008-011-012-014-VTZ005-008-210400-
NORTHERN NEW ENGLAND
  
CITY           SKY/WX    TMP DP  RH WIND       PRES   REMARKS
PORTLAND ME    FAIR      49  45  86 CALM      30.08F                  
BANGOR ME      CLOUDY    47  43  86 SW5       30.09S                  
CONCORD NH     LGT RAIN  49  47  93 CALM      30.07F FOG              
MANCHESTER NH  CLOUDY    51  49  92 NW3       30.06S                  
NASHUA NH      CLOUDY    50  50 100 CALM      30.08R                  
PORTSMOUTH NH  CLOUDY    50  48  91 CALM      30.06S                  
JAFFREY NH     CLOUDY    48  46  93 CALM      30.06F                  
KEENE NH       CLOUDY    48  48 100 CALM      30.06F                  
BURLINGTON VT  FAIR      45  41  86 CALM      30.03S                  
MT. WASHINGTON NOT AVBL                                               
$$

NYZ052-076-210400-
EASTERN NEW YORK
  
CITY           SKY/WX    TMP DP  RH WIND       PRES   REMARKS
ALBANY         FOG       46  43  89 CALM      30.05S VSB 1/2          
NEW YORK CITY  CLOUDY    55  50  83 NE14      29.99S                  
$$
 
ANZALL-210400-
MARINE OBSERVATIONS
  
STATION/POSITION TIME  TEMP    WIND        PRES    VSBY  WAVE
                       AIR SEA DIR/SP/G                  HT/PER
                 (UTC) (F)     (DEG/KT/KT) (MB)    (MI)  (FT/S)
BOSTON BUOY      0150   56 57  130/  4/  8 1017.1          1/13
BUZZARDS BAY     0200   56      80/ 12/ 13 1017.2S
NANTUCKET SOUND  0240      56                N/A
MASS BAY-STELLWA 0204   56 56  150/  8/  8 1017.4F  1 7/8  1/ 3
ISLE OF SHOALS   0200   54      90/  3/  4 1017.7F
S OF BLOCK IS    0230      60                N/A           3/ 4
$$

......................KEY.........................
  SKY/WX - SKY CONDITION/PRESENT WEATHER
  TMP    - TEMPERATURE IN FAHRENHEIT
  DWPT   - DEWPOINT IN FAHRENHEIT
  RH     - RELATIVE HUMIDITY IN PERCENT
  WIND   - DIRECTION AND SPEED IN MPH
  PRES   - MEAN SEA LEVEL PRESSURE IN INCHES OF HG
  WCI    - WIND CHILL INDEX
  VSB    - VISIBILITY IN MILES
  HX     - HEAT INDEX
  TC     - TEMPERATURE IN CELSIUS
  VRB    - VARIABLE WIND DIRECTION
  N/A    - NOT AVAILABLE
  
      

Other recent Regional Weather Roundups

Tue Oct 22, 2:10am

Tue Oct 22, 2:00am

Tue Oct 22, 1:10am

Tue Oct 22, 1:00am

Tue Oct 22, 12:10am

Tue Oct 22, 12:00am

Mon Oct 21, 11:10pm

Mon Oct 21, 11:00pm

Mon Oct 21, 10:10pm

Mon Oct 21, 10:01pm

Mon Oct 21, 9:10pm

Mon Oct 21, 9:00pm

Mon Oct 21, 8:10pm

Mon Oct 21, 8:00pm

Mon Oct 21, 7:10pm

Mon Oct 21, 7:01pm

Mon Oct 21, 6:10pm

Mon Oct 21, 6:01pm

Mon Oct 21, 5:10pm

Mon Oct 21, 5:01pm

Mon Oct 21, 4:10pm

Mon Oct 21, 4:00pm

Mon Oct 21, 3:10pm

Mon Oct 21, 3:01pm

Mon Oct 21, 2:10pm

Mon Oct 21, 2:00pm

Mon Oct 21, 1:10pm

Mon Oct 21, 1:01pm

Mon Oct 21, 12:10pm

Mon Oct 21, 12:00pm

Mon Oct 21, 11:10am

Mon Oct 21, 11:00am

Mon Oct 21, 10:10am

Mon Oct 21, 10:00am

Mon Oct 21, 9:10am

Mon Oct 21, 9:00am

Mon Oct 21, 7:10am

Mon Oct 21, 7:00am

Mon Oct 21, 6:10am

Mon Oct 21, 6:00am

Mon Oct 21, 5:10am

Mon Oct 21, 5:00am

Mon Oct 21, 4:10am

Mon Oct 21, 4:00am

Mon Oct 21, 3:10am

Mon Oct 21, 3:00am

Mon Oct 21, 2:10am

Mon Oct 21, 2:01am

Mon Oct 21, 1:10am

Mon Oct 21, 1:00am

Mon Oct 21, 12:10am

Mon Oct 21, 12:00am

Sun Oct 20, 11:10pm

Sun Oct 20, 10:10pm

Sun Oct 20, 10:00pm

Sun Oct 20, 9:10pm

Sun Oct 20, 9:01pm

Sun Oct 20, 8:10pm

Sun Oct 20, 8:00pm

Sun Oct 20, 7:10pm

Sun Oct 20, 7:01pm

Sun Oct 20, 6:10pm

Sun Oct 20, 6:00pm

Sun Oct 20, 5:10pm

Sun Oct 20, 5:00pm

Sun Oct 20, 4:10pm

Sun Oct 20, 4:00pm

Sun Oct 20, 3:10pm

Sun Oct 20, 3:00pm

Sun Oct 20, 2:10pm

Sun Oct 20, 2:01pm

Sun Oct 20, 1:10pm

Sun Oct 20, 1:01pm

Sun Oct 20, 12:10pm

Sun Oct 20, 12:00pm

Sun Oct 20, 11:10am

Sun Oct 20, 11:00am

Sun Oct 20, 10:10am

Sun Oct 20, 10:00am

Sun Oct 20, 9:10am

Sun Oct 20, 9:00am

Sun Oct 20, 8:10am

Sun Oct 20, 8:00am

Sun Oct 20, 7:10am

Sun Oct 20, 7:00am

Sun Oct 20, 6:10am

Sun Oct 20, 6:00am

Sun Oct 20, 5:10am

Sun Oct 20, 5:00am

Sun Oct 20, 4:10am

Sun Oct 20, 4:00am

Sun Oct 20, 3:10am

Sun Oct 20, 3:00am

Sun Oct 20, 2:10am

Sun Oct 20, 2:00am

Sun Oct 20, 1:10am

Sun Oct 20, 1:00am

Sun Oct 20, 12:10am

Sun Oct 20, 12:00am

Sat Oct 19, 11:10pm

Sat Oct 19, 11:00pm

Sat Oct 19, 10:10pm

Sat Oct 19, 10:00pm

Sat Oct 19, 9:10pm

Sat Oct 19, 9:00pm

Sat Oct 19, 8:10pm

Sat Oct 19, 8:00pm

Sat Oct 19, 7:10pm

Sat Oct 19, 7:00pm

Sat Oct 19, 6:10pm

Sat Oct 19, 6:00pm

Sat Oct 19, 5:10pm

Sat Oct 19, 5:00pm

Sat Oct 19, 4:10pm

Sat Oct 19, 4:00pm

Sat Oct 19, 3:10pm

Sat Oct 19, 3:01pm

Sat Oct 19, 2:10pm

Sat Oct 19, 2:00pm

Sat Oct 19, 1:10pm

Sat Oct 19, 1:01pm

Sat Oct 19, 12:10pm

Sat Oct 19, 12:00pm

Sat Oct 19, 11:10am

Sat Oct 19, 11:01am

Sat Oct 19, 10:10am

Sat Oct 19, 10:00am

Sat Oct 19, 9:10am

Sat Oct 19, 9:00am

Sat Oct 19, 8:10am

Sat Oct 19, 8:00am

Sat Oct 19, 7:10am

Sat Oct 19, 7:00am

Sat Oct 19, 6:10am

Sat Oct 19, 6:00am

Sat Oct 19, 5:10am

Sat Oct 19, 5:00am

Sat Oct 19, 4:10am

Sat Oct 19, 4:00am

Sat Oct 19, 3:10am

Sat Oct 19, 3:00am

Meta data:

ID: faa88c39-c659-4a64-a674-e4104c997851
Link: https://api.weather.gov/products/faa88c39-c659-4a64-a674-e4104c997851